Weather in Mezitli

Turkey     36°49′44″N   34°24′48″E
temp.,
°C
wind,
m/s
gust,
m/s
humid.,
%
clouds,
%
prec.,
mm/h
press.,
hPa
HPBL,
m
6 may, thu
thu600:00+19ne338499 0.0 101081
03:00+18ne22846 0.0 100960
06:00+18nne2381100 0.0 101070
09:00+21ene3373100 0.0 1011479
12:00+22se2272100 0.0 1011582
15:00+23sse327333 0.1 1010656
18:00+21s337998 0.9 1009326
21:00+19ene11880 2.7 101050
7 may, fri
fri700:00+18ne33927 0.0 101192
03:00+18n22770 0.0 101154
06:00+18nw11690 0.0 101239
09:00+21sse22630 0.0 1013389
12:00+24s4361100 0.0 1013654
15:00+24ssw55600 0.0 1013640
18:00+24ssw45565 0.0 1012417
21:00+20wsw12725 0.0 101435
8 may, sat
sat800:00+19ene11798 0.0 101413
03:00+18nne227796 0.0 101439
06:00+18nne11755 0.0 101438
09:00+22ese216084 0.0 1014339
12:00+24s32535 0.0 1014499
15:00+25s3254100 0.0 1013503
18:00+23s3265100 0.0 1013217
21:00+20nne117796 0.0 101313
9 may, sun
sun900:00+21n2272100 0.0 101220
03:00+20ne2271100 0.0 101031
06:00+20ene117297 0.0 101025
09:00+23se1160100 0.0 1010174
12:00+25sse325084 0.0 1010421
15:00+26s33491 0.0 1009391
18:00+24ssw23580 0.0 1008174
21:00+22nnw11603 0.0 100914
10 may, mon
mon1000:00+22nne22540 0.0 101019
03:00+21w22520 0.0 101012
06:00+20ne22530 0.0 101029
09:00+24se21450 0.0 1011312
12:00+26s32410 0.0 1010514
15:00+27ssw33380 0.0 1009605
18:00+27sw33390 0.0 1008338
21:00+23wnw22470 0.0 100814